Flag for U.S.A. Weather past 2 weeks in Salem, Oregon, U.S.A.

Now
51 °F

Clear.


Feels Like: 51 °F
Forecast: 52 / 59 °F
Wind: 3 mph from Southeast

Location: McNary Field

Current Time: Oct 24, 2014 at 4:39:19 AM

Latest Report: Oct 24, 2014 at 3:56 AM


Visibility: 10 mi

Pressure: 30.00 "Hg

Humidity: 86%

Dew point: 47 °F

Location of SalemLocation

Historic Weather in Salem — Graph

°F

Salem temperature yesterday

Maximum temperature yesterday: 60 °F (at 12:56 PM)
Minimum temperature yesterday: 53 °F (at 10:56 PM)
Average temperature yesterday: 57 °F

Past Weeks' High & Low Weather Summary

 TemperatureHumidityPressure
High76 °F (Oct 9, 4:56 PM)97% (Oct 12, 4:56 AM)30.29 "Hg (Oct 12, 4:56 AM)
Low45 °F (Oct 13, 2:56 AM)31% (Oct 13, 3:56 PM)29.53 "Hg (Oct 15, 12:56 AM)
Average59 °F79%29.90 "Hg
* Reported Oct 9 2:56 AM — Oct 24 2:56 AM, Salem, Weather by CustomWeather, © 2014

Note: Actual official high and low records may vary slightly from our data, if they occured in-between our weather recording intervals... More about our weather records

Advertising

Salem weather history for previous 24 hours

 ConditionsComfort  
Time TempWeatherWind HumidityBarometerVisibility
2:56 AM
Oct 24
52 °FMostly cloudy.3 mph86%30.01 "Hg10 mi
1:56 AM51 °FClear.5 mph89%30.02 "Hg10 mi
12:56 AM53 °FPassing clouds.5 mph83%30.01 "Hg10 mi
11:56 PM
Oct 23
53 °FOvercast.8 mph83%29.99 "Hg10 mi
10:56 PM53 °FPassing clouds.9 mph83%29.98 "Hg10 mi
9:56 PM54 °FClear.8 mph83%29.97 "Hg10 mi
8:56 PM56 °FMostly cloudy.10 mph77%29.96 "Hg10 mi
7:56 PM56 °FPassing clouds.9 mph81%29.96 "Hg10 mi
6:56 PM55 °FPassing clouds.7 mph87%29.96 "Hg10 mi
5:56 PM58 °FMore clouds than sun.9 mph78%29.95 "Hg10 mi
4:56 PM60 °FBroken clouds.7 mph75%29.94 "Hg10 mi
3:56 PM60 °FBroken clouds.7 mph78%29.93 "Hg10 mi
2:56 PM60 °FLight rain. Broken clouds.8 mph78%29.92 "Hg10 mi
1:56 PM60 °FScattered clouds.10 mph78%29.90 "Hg10 mi
12:56 PM60 °FSunny.12 mph78%29.90 "Hg10 mi
11:56 AM59 °FBroken clouds.14 mph84%29.89 "Hg10 mi
10:56 AM58 °FBroken clouds.13 mph87%29.87 "Hg10 mi
9:56 AM57 °FOvercast.5 mph83%29.85 "Hg10 mi
8:56 AM56 °FOvercast.14 mph87%29.82 "Hg10 mi
7:56 AM57 °FLight rain. Mostly cloudy.12 mph90%29.78 "Hg10 mi
6:56 AM57 °FLight rain. Mostly cloudy.8 mph90%29.77 "Hg7 mi
5:56 AM57 °FOvercast.10 mph90%29.76 "Hg10 mi
4:56 AM56 °FLight rain. Overcast.5 mph93%29.76 "Hg7 mi
Weather by CustomWeather, © 2014

See weather overviewHow to use our weather pages